Alva, OK

3:10 AM CDT on April 21, 2018 (GMT -0500)
Alva Regional

Weather History for KAVK - May, 2013

Change the Weather History Date:

Wednesday, May 1, 2013

  Actual Average Record
Temperature  
Mean Temperature 52 °F -  
Max Temperature 68 °F 73 °F 94 °F (1948)
Min Temperature 37 °F 48 °F 32 °F (2014)
Degree Days  
Heating Degree Days 12    
Growing Degree Days 2 (Base 50)    
Moisture  
Dew Point 51 °F    
Average Humidity 91    
Maximum Humidity 100    
Minimum Humidity 68    
Precipitation  
Precipitation 0.55 in - - ()
Sea Level Pressure  
Sea Level Pressure 29.96 in    
Wind  
Wind Speed 18 mph (NE)    
Max Wind Speed 31 mph    
Max Gust Speed 40 mph    
Visibility 8 miles    
Events Rain , Snow , Thunderstorm    
Averages and records for this station are not official NWS values.
T = Trace of Precipitation, MM = Missing Value Source: NWS Daily Summary

Daily Weather History Graph

Daily Weather History Graph

Search for Another Location

Airport or City:

Astronomy

May. 01, 2013 Rise Set
Actual Time 6:40 AM CDT 8:23 PM CDT
Civil Twilight 6:12 AM CDT 8:51 PM CDT
Nautical Twilight 5:39 AM CDT 9:25 PM CDT
Astronomical Twilight 5:03 AM CDT 10:00 PM CDT
Moon 1:33 AM CDT (5/1) 12:20 PM CDT (5/1)
Length of Visible Light 14h 38m
Length of Day
13h 43m
Waning Gibbous, 59% of the Moon is Illuminated
May 1
Waning Gibbous
May 2
Last Quarter
May 9
New
May 17
First Quarter
May 24
Full

Hourly Weather History & Observations

Time (CDT) Temp. Windchill Dew Point Humidity Pressure Visibility Wind Dir Wind Speed Gust Speed Precip Events Conditions
12:00 AM 68.0 °F - 57.2 °F 68% 29.73 in 10.0 mi SSE 24.2 mph 29.9 mph N/A   Clear
12:20 AM 68.0 °F - 57.2 °F 68% 29.73 in 10.0 mi SSE 23.0 mph 29.9 mph N/A   Clear
12:40 AM 66.2 °F - 57.2 °F 73% 29.73 in 10.0 mi SSE 24.2 mph 28.8 mph N/A   Clear
1:00 AM 66.2 °F - 57.2 °F 73% 29.73 in 10.0 mi SSE 19.6 mph 27.6 mph N/A   Clear
1:20 AM 64.4 °F - 57.2 °F 77% 29.73 in 10.0 mi SSE 18.4 mph - N/A   Clear
1:40 AM 64.4 °F - 57.2 °F 77% 29.73 in 10.0 mi SSE 19.6 mph 24.2 mph N/A   Clear
2:00 AM 64.4 °F - 57.2 °F 77% 29.73 in 10.0 mi South 19.6 mph 25.3 mph N/A   Clear
2:20 AM 64.4 °F - 57.2 °F 77% 29.73 in 10.0 mi South 16.1 mph - N/A   Clear
2:40 AM 64.4 °F - 57.2 °F 77% 29.73 in 10.0 mi South 12.7 mph - N/A   Clear
3:00 AM 62.6 °F - 57.2 °F 82% 29.72 in 10.0 mi South 12.7 mph - N/A   Clear
3:20 AM 62.6 °F - 57.2 °F 82% 29.71 in 10.0 mi SSE 13.8 mph - N/A   Clear
3:40 AM 62.6 °F - 57.2 °F 82% 29.72 in 10.0 mi SSE 11.5 mph - N/A   Clear
4:05 AM 62.6 °F - 59.0 °F 88% 29.72 in 10.0 mi SSE 11.5 mph - N/A   Clear
4:25 AM 62.6 °F - 59.0 °F 88% 29.72 in 10.0 mi SSE 11.5 mph - N/A   Clear
4:40 AM 62.6 °F - 59.0 °F 88% 29.72 in 10.0 mi SSE 10.4 mph - N/A   Clear
5:00 AM 62.6 °F - 59.0 °F 88% 29.72 in 10.0 mi SSE 10.4 mph - N/A   Clear
5:20 AM 62.6 °F - 59.0 °F 88% 29.73 in 10.0 mi SSE 10.4 mph - N/A   Clear
5:40 AM 60.8 °F - 59.0 °F 94% 29.74 in 10.0 mi SSE 11.5 mph - N/A   Clear
6:00 AM 60.8 °F - 59.0 °F 94% 29.75 in 10.0 mi South 8.1 mph - N/A   Clear
6:20 AM 59.0 °F - 59.0 °F 100% 29.76 in 10.0 mi SSE 9.2 mph - N/A   Clear
6:40 AM 59.0 °F - 59.0 °F 100% 29.79 in 10.0 mi SSE 5.8 mph - N/A   Clear
7:00 AM 60.8 °F - 59.0 °F 94% 29.82 in 7.0 mi NNE 10.4 mph - N/A   Clear
7:20 AM 60.8 °F - 60.8 °F 100% 29.81 in 7.0 mi ESE 9.2 mph - N/A   Clear
7:40 AM 62.6 °F - 60.8 °F 94% 29.84 in 8.0 mi East 9.2 mph - N/A   Scattered Clouds
8:00 AM 60.8 °F - 60.8 °F 100% 29.85 in 5.0 mi NE 9.2 mph - N/A   Overcast
8:20 AM 62.6 °F - 62.6 °F 100% 29.85 in 6.0 mi East 11.5 mph - N/A   Overcast
8:40 AM 64.4 °F - 62.6 °F 94% 29.86 in 8.0 mi East 10.4 mph - N/A   Overcast
9:00 AM 64.4 °F - 62.6 °F 94% 29.87 in 8.0 mi East 8.1 mph - N/A   Overcast
9:25 AM 64.4 °F - 62.6 °F 94% 29.88 in 8.0 mi East 9.2 mph - N/A   Overcast
9:40 AM 64.4 °F - 62.6 °F 94% 29.89 in 8.0 mi East 9.2 mph - N/A   Overcast
10:00 AM 64.4 °F - 62.6 °F 94% 29.89 in 9.0 mi East 9.2 mph - N/A   Overcast
10:25 AM 64.4 °F - 62.6 °F 94% 29.91 in 9.0 mi East 6.9 mph - N/A   Overcast
11:00 AM 64.4 °F - 62.6 °F 94% 29.92 in 3.0 mi ENE 9.2 mph - N/A Rain Light Rain
11:20 AM 64.4 °F - 64.4 °F 100% 29.93 in 2.0 mi NE 5.8 mph - N/A Rain Light Rain
11:40 AM 64.4 °F - 64.4 °F 100% 29.93 in 3.0 mi NE 4.6 mph - N/A Rain Light Rain
12:00 PM 66.2 °F - 64.4 °F 94% 29.93 in 4.0 mi NNE 4.6 mph - N/A   Overcast
12:25 PM 55.4 °F - 53.6 °F 94% 29.96 in 5.0 mi NNW 20.7 mph 31.1 mph N/A Rain Light Rain
12:40 PM 53.6 °F - 51.8 °F 94% 29.97 in 6.0 mi North 20.7 mph 29.9 mph N/A Rain Light Rain
1:00 PM 51.8 °F - 50.0 °F 94% 29.98 in 6.0 mi North 17.3 mph 31.1 mph N/A Rain Light Rain
1:20 PM 51.8 °F - 50.0 °F 94% 29.99 in 8.0 mi North 19.6 mph 28.8 mph N/A   Overcast
1:40 PM 50.0 °F - 50.0 °F 100% 30.00 in 2.5 mi North 17.3 mph 32.2 mph 0.02 in Rain Light Rain
2:00 PM 50.0 °F - 48.2 °F 94% 30.01 in 3.0 mi North 23.0 mph 29.9 mph 0.05 in Rain Light Rain
2:20 PM 50.0 °F - 48.2 °F 94% 30.02 in 4.0 mi North 21.9 mph 27.6 mph 0.01 in Rain Light Rain
2:40 PM 48.2 °F - 48.2 °F 100% 30.03 in 7.0 mi North 24.2 mph 31.1 mph 0.01 in Rain Light Rain
3:00 PM 48.2 °F - 46.4 °F 93% 30.04 in 6.0 mi North 26.5 mph 38.0 mph 0.02 in Rain Light Rain
3:20 PM 48.2 °F - 46.4 °F 93% 30.05 in 5.0 mi North 24.2 mph 36.8 mph N/A Rain Light Rain
3:40 PM 46.4 °F 38.5 °F 46.4 °F 100% 30.06 in 5.0 mi North 21.9 mph 39.1 mph 0.01 in Rain Light Rain
4:05 PM 46.4 °F 37.9 °F 44.6 °F 93% 30.06 in 9.0 mi North 25.3 mph 35.7 mph N/A Rain Light Rain
4:20 PM 44.6 °F 35.1 °F 42.8 °F 93% 30.07 in 10.0 mi North 27.6 mph 35.7 mph N/A   Overcast
4:40 PM 44.6 °F 35.1 °F 42.8 °F 93% 30.07 in 10.0 mi North 27.6 mph 39.1 mph N/A   Overcast
5:00 PM 44.6 °F 35.5 °F 41.0 °F 87% 30.08 in 10.0 mi North 25.3 mph 36.8 mph N/A   Overcast
5:20 PM 44.6 °F 34.9 °F 41.0 °F 87% 30.09 in 10.0 mi North 28.8 mph 40.3 mph N/A   Overcast
5:40 PM 44.6 °F 36.9 °F 41.0 °F 87% 30.11 in 10.0 mi North 18.4 mph 32.2 mph N/A   Overcast
6:05 PM 42.8 °F 32.1 °F 39.2 °F 87% 30.12 in 10.0 mi North 31.1 mph 39.1 mph N/A   Overcast
6:20 PM 42.8 °F 32.7 °F 39.2 °F 87% 30.12 in 10.0 mi North 27.6 mph 34.5 mph N/A   Overcast
6:40 PM 41.0 °F 30.5 °F 39.2 °F 93% 30.13 in 10.0 mi North 26.5 mph 34.5 mph N/A   Overcast
7:00 PM 41.0 °F 30.0 °F 37.4 °F 87% 30.13 in 9.0 mi North 28.8 mph 35.7 mph N/A   Overcast
7:20 PM 41.0 °F 30.5 °F 37.4 °F 87% 30.15 in 8.0 mi North 26.5 mph 35.7 mph N/A Rain Light Rain
7:40 PM 39.2 °F 27.6 °F 37.4 °F 93% 30.16 in 3.0 mi North 28.8 mph 35.7 mph 0.03 in   Overcast
8:00 PM 39.2 °F 28.7 °F 39.2 °F 100% 30.18 in 5.0 mi North 23.0 mph 32.2 mph 0.03 in   Overcast
8:20 PM 39.2 °F 28.0 °F 37.4 °F 93% 30.19 in 7.0 mi North 26.5 mph 34.5 mph N/A Rain Light Rain
8:40 PM 39.2 °F 28.7 °F 37.4 °F 93% 30.20 in 9.0 mi North 23.0 mph 34.5 mph N/A Rain Light Rain
9:00 PM 39.2 °F 28.3 °F 37.4 °F 93% 30.22 in 8.0 mi North 25.3 mph 32.2 mph N/A Rain Light Rain
9:20 PM 39.2 °F 29.6 °F 37.4 °F 93% 30.24 in 6.0 mi North 19.6 mph 33.4 mph 0.01 in Rain Light Rain
9:40 PM 39.2 °F 29.8 °F 37.4 °F 93% 30.26 in 7.0 mi North 18.4 mph 28.8 mph 0.04 in Rain , Thunderstorm Light Rain
10:00 PM 39.2 °F 28.7 °F 37.4 °F 93% 30.27 in 6.0 mi North 23.0 mph 34.5 mph 0.06 in Rain , Thunderstorm Light Rain
10:20 PM 39.2 °F 28.3 °F 37.4 °F 93% 30.28 in 10.0 mi North 25.3 mph 32.2 mph N/A Rain , Thunderstorm Light Rain
10:40 PM 39.2 °F 28.7 °F 37.4 °F 93% 30.28 in 9.0 mi North 23.0 mph 31.1 mph N/A Thunderstorm Overcast
11:00 PM 37.4 °F 27.8 °F 37.4 °F 100% 30.28 in 4.0 mi North 17.3 mph 33.4 mph 0.02 in Snow , Thunderstorm Light Snow
11:20 PM 37.4 °F 26.6 °F 37.4 °F 100% 30.27 in 3.0 mi North 21.9 mph 36.8 mph 0.02 in Rain , Thunderstorm Light Rain
11:40 PM 37.4 °F 26.1 °F 37.4 °F 100% 30.29 in 1.8 mi North 24.2 mph 35.7 mph 0.30 in Rain Heavy Rain